Weather History for KLGA - September, 2012

Change the Weather History Date:

Monday, September 24, 2012

  Actual Average Record
Temperature  
Mean Temperature 62 °F 66 °F  
Max Temperature 68 °F 73 °F 89 °F (1959)
Min Temperature 56 °F 59 °F 44 °F (1950)
Degree Days  
Heating Degree Days 3 2  
Month to date heating degree days 5 16  
Since 1 July heating degree days 5 17  
Cooling Degree Days 0 3  
Month to date cooling degree days 171 144  
Year to date cooling degree days 1468 1177  
Growing Degree Days 12 (Base 50)    
Moisture  
Dew Point 40 °F    
Average Humidity 46    
Maximum Humidity 62    
Minimum Humidity 29    
Precipitation  
Precipitation 0.00 in 0.12 in 1.34 in (1975)
Month to date precipitation 3.60 2.93  
Year to date precipitation 27.21 33.18  
Snow  
Snow 0.00 in 0.00 in - ()
Month to date snowfall 0.0 0.0  
Since 1 July snowfall 0.0 0.0  
Snow Depth 0.00 in    
Sea Level Pressure  
Sea Level Pressure 30.12 in    
Wind  
Wind Speed 9 mph (WNW)    
Max Wind Speed 16 mph    
Max Gust Speed 21 mph    
Visibility 10 miles    
Events      
T = Trace of Precipitation, MM = Missing Value Source: NWS Daily Summary

Daily Weather History Graph

Daily Weather History Graph

Search for Another Location

Airport or City:

Trip Planner

Search our weather history database for the weather conditions in past years. The results will help you decide how hot, cold, wet, or windy it might be!

Date:

Astronomy

Sep. 24, 2012 Rise Set
Actual Time 6:45 AM EDT 6:48 PM EDT
Civil Twilight 6:18 AM EDT 7:15 PM EDT
Nautical Twilight 5:46 AM EDT 7:47 PM EDT
Astronomical Twilight 5:13 AM EDT 8:20 PM EDT
Moon 3:34 PM EDT (9/24) 12:57 AM EDT (9/24)
Length of Visible Light 12h 57m
Length of Day
12h 03m
Waxing Gibbous, 70% of the Moon is Illuminated
Sep 24
Waxing Gibbous
Sep 29
Full
Oct 8
Last Quarter
Oct 15
New
Oct 21
First Quarter

Hourly Weather History & Observations

Time (EDT) Temp. Dew Point Humidity Pressure Visibility Wind Dir Wind Speed Gust Speed Precip Events Conditions
12:51 AM 61.0 °F 42.1 °F 50% 30.11 in 10.0 mi NNW 5.8 mph - N/A   Partly Cloudy
1:51 AM 59.0 °F 43.0 °F 55% 30.11 in 10.0 mi NNW 6.9 mph - N/A   Partly Cloudy
2:51 AM 59.0 °F 44.1 °F 58% 30.10 in 10.0 mi NNW 8.1 mph - N/A   Partly Cloudy
3:51 AM 57.9 °F 43.0 °F 58% 30.10 in 10.0 mi Calm Calm - N/A   Partly Cloudy
4:51 AM 57.9 °F 44.1 °F 60% 30.11 in 10.0 mi WNW 5.8 mph - N/A   Partly Cloudy
5:51 AM 57.0 °F 45.0 °F 64% 30.12 in 10.0 mi WNW 6.9 mph - N/A   Mostly Cloudy
6:51 AM 57.0 °F 44.1 °F 62% 30.13 in 10.0 mi NNW 6.9 mph - N/A   Mostly Cloudy
7:51 AM 57.0 °F 43.0 °F 59% 30.14 in 10.0 mi NNW 8.1 mph - N/A   Scattered Clouds
8:51 AM 59.0 °F 44.1 °F 58% 30.16 in 10.0 mi Variable 4.6 mph - N/A   Mostly Cloudy
9:51 AM 60.1 °F 43.0 °F 53% 30.17 in 10.0 mi NNW 9.2 mph - N/A   Partly Cloudy
10:51 AM 62.1 °F 39.0 °F 43% 30.17 in 10.0 mi NW 11.5 mph - N/A   Partly Cloudy
11:51 AM 64.0 °F 39.0 °F 40% 30.16 in 10.0 mi West 10.4 mph - N/A   Partly Cloudy
12:51 PM 64.9 °F 39.0 °F 39% 30.14 in 10.0 mi West 9.2 mph 18.4 mph N/A   Scattered Clouds
1:51 PM 66.9 °F 37.0 °F 33% 30.12 in 10.0 mi West 15.0 mph 18.4 mph N/A   Scattered Clouds
2:51 PM 66.0 °F 36.0 °F 33% 30.11 in 10.0 mi WNW 12.7 mph 18.4 mph N/A   Scattered Clouds
3:51 PM 66.9 °F 36.0 °F 32% 30.10 in 10.0 mi West 8.1 mph 16.1 mph N/A   Scattered Clouds
4:51 PM 66.9 °F 34.0 °F 30% 30.09 in 10.0 mi West 10.4 mph - N/A   Scattered Clouds
5:51 PM 66.0 °F 35.1 °F 32% 30.09 in 10.0 mi WSW 10.4 mph - N/A   Scattered Clouds
6:51 PM 64.9 °F 37.0 °F 36% 30.10 in 10.0 mi WNW 8.1 mph - N/A   Partly Cloudy
7:51 PM 64.0 °F 35.1 °F 34% 30.11 in 10.0 mi West 11.5 mph - N/A   Scattered Clouds
8:51 PM 64.4 °F 37.4 °F 37% 30.12 in 10.0 mi WSW 10.4 mph - N/A   Scattered Clouds
9:51 PM 63.0 °F 37.0 °F 38% 30.13 in 10.0 mi SW 9.2 mph - N/A   Scattered Clouds
10:51 PM 62.1 °F 37.9 °F 41% 30.14 in 10.0 mi WSW 8.1 mph - N/A   Scattered Clouds
11:51 PM 61.0 °F 39.0 °F 44% 30.14 in 10.0 mi SW 8.1 mph - N/A   Partly Cloudy